DL1MX-13 Weather Reports


time (UTC)temp
C
wind
direction
speed
KPH
gust
KPH
rain 1hr
cm
rain 24hr
cm
rain mn
cm
humidity
%
barometer
mb
20260504224301 11 155 0.0 0.0 0.00 0.00 0.00 89 1013.4
20260504224202 11 162 0.0 0.0 0.00 0.00 0.00 89 1013.4
20260504224102 11 162 0.0 0.0 0.00 0.00 0.00 89 1013.4
20260504224001 11 162 0.0 0.0 0.00 0.00 0.00 89 1013.4
20260504223902 11 180 0.0 0.0 0.00 0.00 0.00 89 1013.4
20260504223801 11 180 0.0 0.0 0.00 0.00 0.00 89 1013.4
20260504223702 11 215 0.0 0.0 0.00 0.00 0.00 89 1013.4
20260504223602 11 215 0.0 0.0 0.00 0.00 0.00 89 1013.4
20260504223502 11 207 0.0 0.0 0.00 0.00 0.00 89 1013.4
20260504223402 11 207 0.0 0.0 0.00 0.00 0.00 89 1013.4
20260504223301 11 207 0.0 0.0 0.00 0.00 0.00 89 1013.4
20260504223202 11 207 0.0 0.0 0.00 0.00 0.00 89 1013.4
20260504223101 11 207 0.0 0.0 0.00 0.00 0.00 89 1013.4
20260504223002 11 197 0.0 0.0 0.00 0.00 0.00 89 1013.4
20260504222901 11 197 0.0 0.0 0.00 0.00 0.00 89 1013.4
20260504222802 11 197 0.0 0.0 0.00 0.00 0.00 89 1013.4
20260504222702 11 190 0.0 0.0 0.00 0.00 0.00 89 1013.4
20260504222602 11 190 0.0 0.0 0.00 0.00 0.00 89 1013.4
20260504222502 11 190 0.0 0.0 0.00 0.00 0.00 89 1013.4
20260504222401 11 190 0.0 0.0 0.00 0.00 0.00 89 1013.4
20260504222302 11 190 0.0 0.0 0.00 0.00 0.00 89 1013.4
20260504222201 11 180 0.0 0.0 0.00 0.00 0.00 89 1013.4
20260504222102 11 180 0.0 0.0 0.00 0.00 0.00 89 1013.4
20260504222001 11 180 0.0 0.0 0.00 0.00 0.00 89 1013.4
20260504221902 11 210 6.4 0.0 0.00 0.00 0.00 89 1013.4
20260504221801 11 210 6.4 0.0 0.00 0.00 0.00 89 1013.4
20260504221701 11 210 6.4 0.0 0.00 0.00 0.00 89 1013.4
20260504221602 11 215 4.8 0.0 0.00 0.00 0.00 89 1013.4
20260504221501 11 215 4.8 0.0 0.00 0.00 0.00 89 1013.3
20260504221402 11 200 3.2 0.0 0.00 0.00 0.00 89 1013.4
20260504221301 11 200 3.2 0.0 0.00 0.00 0.00 89 1013.4
20260504221202 11 205 0.0 0.0 0.00 0.00 0.00 89 1013.4
20260504221102 11 205 0.0 0.0 0.00 0.00 0.00 89 1013.4
20260504221002 11 205 0.0 0.0 0.00 0.00 0.00 89 1013.4
20260504220902 11 187 0.0 0.0 0.00 0.00 0.00 89 1013.5
20260504220801 11 187 0.0 0.0 0.00 0.00 0.00 89 1013.5
20260504220702 11 187 0.0 0.0 0.00 0.00 0.00 89 1013.5
20260504220601 11 187 0.0 0.0 0.00 0.00 0.00 89 1013.4
20260504220502 11 187 0.0 0.0 0.00 0.00 0.00 89 1013.5
20260504220402 11 222 4.8 0.0 0.00 0.00 0.00 90 1013.5
20260504220302 11 222 4.8 0.0 0.00 0.00 0.00 90 1013.5
20260504220202 11 222 4.8 0.0 0.00 0.00 0.00 90 1013.4
20260504220002 11 222 4.8 0.0 0.00 0.00 0.00 90 1013.4
20260504215901 11 222 4.8 0.0 0.00 0.00 0.00 90 1013.4
20260504215802 11 222 4.8 0.0 0.00 0.00 0.00 90 1013.4
20260504215701 11 222 4.8 0.0 0.00 0.00 0.00 90 1013.4
20260504215602 11 215 6.4 0.0 0.00 0.00 0.00 90 1013.4
20260504215501 11 215 6.4 0.0 0.00 0.00 0.00 90 1013.4
20260504215402 11 215 6.4 0.0 0.00 0.00 0.00 90 1013.5
20260504215304 11 215 3.2 0.0 0.00 0.00 0.00 90 1013.5
20260504215201 11 215 3.2 0.0 0.00 0.00 0.00 90 1013.5
20260504215102 11 220 6.4 0.0 0.00 0.00 0.00 90 1013.5
20260504215001 11 220 6.4 0.0 0.00 0.00 0.00 90 1013.6
20260504214902 11 225 0.0 0.0 0.00 0.00 0.00 90 1013.6
20260504214802 11 225 0.0 0.0 0.00 0.00 0.00 90 1013.6
20260504214702 11 225 0.0 0.0 0.00 0.00 0.00 90 1013.6
20260504214601 11 205 4.8 0.0 0.00 0.00 0.00 90 1013.7
20260504214502 11 205 4.8 0.0 0.00 0.00 0.00 90 1013.6
20260504214402 11 210 6.4 0.0 0.00 0.00 0.00 90 1013.7
20260504214301 11 210 6.4 0.0 0.00 0.00 0.00 90 1013.7
20260504214202 11 210 6.4 0.0 0.00 0.00 0.00 90 1013.7
20260504214101 11 210 6.4 0.0 0.00 0.00 0.00 90 1013.7
20260504214002 11 205 0.0 0.0 0.00 0.00 0.00 90 1013.7
20260504213901 11 205 0.0 0.0 0.00 0.00 0.00 90 1013.8
20260504213802 11 215 0.0 0.0 0.00 0.00 0.00 90 1013.8
20260504213702 11 215 0.0 0.0 0.00 0.00 0.00 90 1013.8
20260504213601 11 212 0.0 0.0 0.00 0.00 0.00 90 1013.8
20260504213502 11 212 0.0 0.0 0.00 0.00 0.00 90 1013.8
20260504213401 11 212 0.0 0.0 0.00 0.00 0.00 90 1013.8
20260504213302 11 220 0.0 0.0 0.00 0.00 0.00 90 1013.8
20260504213201 11 220 0.0 0.0 0.00 0.00 0.00 90 1013.8
20260504213102 11 220 0.0 0.0 0.00 0.00 0.00 90 1013.9
20260504213001 11 217 0.0 0.0 0.00 0.00 0.00 90 1013.9
20260504212902 11 217 0.0 0.0 0.00 0.00 0.00 90 1013.9
20260504212802 11 207 0.0 0.0 0.00 0.00 0.00 90 1013.9
20260504212702 11 207 0.0 0.0 0.00 0.00 0.00 90 1013.9
20260504212602 11 220 0.0 0.0 0.00 0.00 0.00 90 1013.9
20260504212501 11 220 0.0 0.0 0.00 0.00 0.00 90 1014.0
20260504212402 11 220 0.0 0.0 0.00 0.00 0.00 90 1013.9
20260504212303 11 220 0.0 0.0 0.00 0.00 0.00 90 1013.9
20260504212202 11 220 0.0 0.0 0.00 0.00 0.00 90 1014.0
20260504212102 11 220 0.0 0.0 0.00 0.00 0.00 90 1014.0
20260504212001 11 215 0.0 0.0 0.00 0.00 0.00 90 1014.0
20260504211902 11 215 0.0 0.0 0.00 0.00 0.00 90 1014.0
20260504211801 11 215 0.0 0.0 0.00 0.00 0.00 90 1014.0
20260504211702 11 215 0.0 0.0 0.00 0.00 0.00 90 1014.0
20260504211601 11 210 4.8 0.0 0.00 0.00 0.00 90 1014.0
20260504211502 11 210 4.8 0.0 0.00 0.00 0.00 90 1014.0
20260504211401 11 210 4.8 0.0 0.00 0.00 0.00 90 1014.1
20260504211302 11 210 4.8 0.0 0.00 0.00 0.00 90 1014.1
20260504211202 11 210 4.8 0.0 0.00 0.00 0.00 90 1014.1
20260504211101 11 212 0.0 0.0 0.00 0.00 0.00 90 1014.1
20260504211002 11 212 0.0 0.0 0.00 0.00 0.00 90 1014.1
20260504210901 11 212 0.0 0.0 0.00 0.00 0.00 90 1014.1
20260504210802 11 210 0.0 0.0 0.00 0.00 0.00 90 1014.1
20260504210701 11 210 0.0 0.0 0.00 0.00 0.00 90 1014.2
20260504210602 11 210 0.0 0.0 0.00 0.00 0.00 90 1014.2
20260504210502 11 210 0.0 0.0 0.00 0.00 0.00 90 1014.2
20260504210402 11 210 0.0 0.0 0.00 0.00 0.00 90 1014.2
20260504210302 11 200 0.0 0.0 0.00 0.00 0.00 90 1014.2
20260504210201 11 200 0.0 0.0 0.00 0.00 0.00 90 1014.2
20260504210001 11 227 0.0 0.0 0.00 0.00 0.00 90 1014.2
20260504205902 11 227 0.0 0.0 0.00 0.00 0.00 90 1014.2
20260504205802 11 225 0.0 0.0 0.00 0.00 0.00 90 1014.2
20260504205702 11 225 0.0 0.0 0.00 0.00 0.00 90 1014.2
20260504205602 11 225 0.0 0.0 0.00 0.00 0.00 90 1014.3
20260504205501 11 225 0.0 0.0 0.00 0.00 0.00 90 1014.3
20260504205402 11 225 0.0 0.0 0.00 0.00 0.00 90 1014.3
20260504205301 11 210 0.0 0.0 0.00 0.00 0.00 89 1014.3
20260504205202 11 210 0.0 0.0 0.00 0.00 0.00 89 1014.3
20260504205101 11 200 0.0 0.0 0.00 0.00 0.00 89 1014.3
20260504205002 11 200 0.0 0.0 0.00 0.00 0.00 89 1014.3
20260504204902 11 200 0.0 0.0 0.00 0.00 0.00 89 1014.3
20260504204801 11 192 0.0 0.0 0.00 0.00 0.00 89 1014.3
20260504204702 11 192 0.0 0.0 0.00 0.00 0.00 89 1014.4
20260504204601 11 192 0.0 0.0 0.00 0.00 0.00 89 1014.4
20260504204502 11 222 0.0 0.0 0.00 0.00 0.00 89 1014.4
20260504204401 11 222 0.0 0.0 0.00 0.00 0.00 89 1014.4
20260504204302 11 222 0.0 0.0 0.00 0.00 0.00 89 1014.4
20260504204202 11 222 0.0 0.0 0.00 0.00 0.00 89 1014.4
20260504204102 11 222 0.0 0.0 0.00 0.00 0.00 89 1014.4
20260504204002 11 222 0.0 0.0 0.00 0.00 0.00 89 1014.4
20260504203901 11 222 0.0 0.0 0.00 0.00 0.00 89 1014.4
20260504203802 11 225 0.0 0.0 0.00 0.00 0.00 89 1014.4
20260504203701 11 225 0.0 0.0 0.00 0.00 0.00 89 1014.4
20260504203602 11 225 0.0 0.0 0.00 0.00 0.00 89 1014.4
20260504203502 11 240 0.0 0.0 0.00 0.00 0.00 89 1014.3
20260504203402 11 240 0.0 0.0 0.00 0.00 0.00 89 1014.4
20260504203302 11 240 0.0 0.0 0.00 0.00 0.00 89 1014.4
20260504203201 11 240 0.0 0.0 0.00 0.00 0.00 89 1014.5
20260504203102 11 240 0.0 0.0 0.00 0.00 0.00 89 1014.5
20260504203001 11 240 0.0 0.0 0.00 0.00 0.00 89 1014.5
20260504202902 11 240 0.0 0.0 0.00 0.00 0.00 89 1014.5
20260504202801 11 270 0.0 0.0 0.00 0.00 0.00 89 1014.5
20260504202702 11 270 0.0 0.0 0.00 0.00 0.00 89 1014.6
20260504202602 11 270 0.0 0.0 0.00 0.00 0.00 89 1014.6
20260504202502 11 262 0.0 0.0 0.00 0.00 0.00 89 1014.5
20260504202402 11 262 0.0 0.0 0.00 0.00 0.00 89 1014.5
20260504202301 11 262 0.0 0.0 0.00 0.00 0.00 89 1014.5
20260504202202 11 222 0.0 0.0 0.00 0.00 0.00 89 1014.5
20260504202101 11 222 0.0 0.0 0.00 0.00 0.00 89 1014.5
20260504202002 11 222 0.0 0.0 0.00 0.00 0.00 89 1014.5
20260504201902 11 222 0.0 0.0 0.00 0.00 0.00 89 1014.5
20260504201802 11 222 0.0 0.0 0.00 0.00 0.00 89 1014.5
20260504201702 11 247 0.0 0.0 0.00 0.00 0.00 89 1014.4
20260504201602 11 247 0.0 0.0 0.00 0.00 0.00 89 1014.4
20260504201502 11 247 0.0 0.0 0.00 0.00 0.00 89 1014.4
20260504201401 11 245 0.0 0.0 0.00 0.00 0.00 89 1014.4
20260504201302 11 245 0.0 0.0 0.00 0.00 0.00 89 1014.5
20260504201201 11 245 0.0 0.0 0.00 0.00 0.00 89 1014.5
20260504201102 11 245 0.0 0.0 0.00 0.00 0.00 89 1014.5
20260504201001 11 245 0.0 0.0 0.00 0.00 0.00 89 1014.5
20260504200902 11 245 0.0 0.0 0.00 0.00 0.00 89 1014.5
20260504200702 11 245 0.0 0.0 0.00 0.00 0.00 89 1014.4
20260504200602 11 245 0.0 0.0 0.00 0.00 0.00 89 1014.5
20260504200502 11 245 0.0 0.0 0.00 0.00 0.00 89 1014.5
20260504200402 11 245 0.0 0.0 0.00 0.00 0.00 89 1014.5
20260504200301 11 245 0.0 0.0 0.00 0.00 0.00 89 1014.4
20260504200202 11 245 0.0 0.0 0.00 0.00 0.00 89 1014.5
20260504200002 12 245 0.0 0.0 0.00 0.00 0.00 89 1014.4
20260504195901 12 245 0.0 0.0 0.00 0.00 0.00 89 1014.4
20260504195802 12 245 0.0 0.0 0.00 0.00 0.00 89 1014.4
20260504195702 12 245 0.0 0.0 0.00 0.00 0.00 89 1014.4
20260504195602 12 245 0.0 0.0 0.00 0.00 0.00 89 1014.3
20260504195502 12 245 0.0 0.0 0.00 0.00 0.00 89 1014.4
20260504195401 12 245 0.0 0.0 0.00 0.00 0.00 89 1014.4
20260504195304 12 245 0.0 0.0 0.00 0.00 0.00 89 1014.4
20260504195201 12 247 0.0 0.0 0.00 0.00 0.00 89 1014.4
20260504195102 12 247 0.0 0.0 0.00 0.00 0.00 89 1014.4
20260504195002 12 247 0.0 0.0 0.00 0.00 0.00 89 1014.3
20260504194901 12 87 0.0 0.0 0.00 0.00 0.00 89 1014.3
20260504194802 12 87 0.0 0.0 0.00 0.00 0.00 89 1014.4
20260504194701 12 5 0.0 0.0 0.00 0.00 0.00 89 1014.3
20260504194602 12 5 0.0 0.0 0.00 0.00 0.00 89 1014.3
20260504194502 12 60 0.0 0.0 0.00 0.00 0.00 89 1014.3
20260504194402 12 60 0.0 0.0 0.00 0.00 0.00 89 1014.3
20260504194302 12 60 0.0 0.0 0.00 0.00 0.00 89 1014.3
20260504194202 12 145 0.0 0.0 0.00 0.00 0.00 89 1014.2
20260504194101 12 145 0.0 0.0 0.00 0.00 0.00 89 1014.3
20260504194002 12 145 0.0 0.0 0.00 0.00 0.00 89 1014.3
20260504193901 12 195 0.0 0.0 0.00 0.00 0.00 89 1014.3
20260504193802 12 195 0.0 0.0 0.00 0.00 0.00 89 1014.2
20260504193702 12 202 0.0 0.0 0.00 0.00 0.00 89 1014.3
20260504193602 12 202 0.0 0.0 0.00 0.00 0.00 89 1014.2
20260504193502 12 217 0.0 0.0 0.00 0.00 0.00 89 1014.2
20260504193401 12 217 0.0 0.0 0.00 0.00 0.00 89 1014.2
20260504193302 12 217 0.0 0.0 0.00 0.00 0.00 89 1014.1
20260504193201 12 205 6.4 0.0 0.00 0.00 0.00 89 1014.1
20260504193102 12 205 6.4 0.0 0.00 0.00 0.00 89 1014.1
20260504193001 12 205 6.4 0.0 0.00 0.00 0.00 89 1014.1
20260504192937 12 205 8.0 0.0 0.00 0.00 0.00 89 1014.1
20260504192801 12 205 8.0 0.0 0.00 0.00 0.00 89 1014.0
20260504192702 12 205 8.0 0.0 0.00 0.00 0.00 89 1014.0
20260504192637 12 205 8.0 0.0 0.00 0.00 0.00 89 1014.0
20260504192501 12 205 8.0 0.0 0.00 0.00 0.00 89 1014.0
20260504192402 12 205 8.0 0.0 0.00 0.00 0.00 89 1014.0
20260504192301 12 205 8.0 0.0 0.00 0.00 0.00 89 1014.1
20260504192202 12 172 4.8 0.0 0.00 0.00 0.00 89 1014.1
20260504192101 12 172 4.8 0.0 0.00 0.00 0.00 89 1014.1
20260504192002 12 172 4.8 0.0 0.00 0.00 0.00 89 1014.1
20260504191902 12 147 0.0 0.0 0.00 0.00 0.00 89 1014.2
20260504191801 12 147 0.0 0.0 0.00 0.00 0.00 89 1014.2
20260504191702 12 147 0.0 0.0 0.00 0.00 0.00 89 1014.2
20260504191602 12 125 0.0 0.0 0.00 0.00 0.00 88 1014.2
20260504191502 12 125 0.0 0.0 0.00 0.00 0.00 88 1014.3
20260504191401 12 95 0.0 0.0 0.00 0.00 0.00 88 1014.3
20260504191302 12 95 0.0 0.0 0.00 0.00 0.00 88 1013.2
20260504191201 12 60 8.0 0.0 0.00 0.00 0.00 88 1013.2
20260504191102 12 60 8.0 0.0 0.00 0.00 0.00 88 1013.2
20260504191001 12 60 8.0 0.0 0.00 0.00 0.00 88 1013.2
20260504190902 12 60 8.0 0.0 0.00 0.00 0.00 88 1013.2
20260504190802 12 60 8.0 0.0 0.00 0.00 0.00 88 1013.2
20260504190702 12 55 4.8 0.0 0.00 0.00 0.00 87 1013.2
20260504190601 12 55 4.8 0.0 0.00 0.00 0.00 87 1013.2
20260504190501 12 55 4.8 0.0 0.00 0.00 0.00 87 1013.2
20260504190402 12 55 4.8 0.0 0.00 0.00 0.00 87 1013.2
20260504190301 12 55 4.8 0.0 0.00 0.00 0.00 87 1013.2
20260504190202 12 55 4.8 0.0 0.00 0.00 0.00 87 1013.2
20260504190002 12 60 6.4 0.0 0.00 0.00 0.00 87 1013.2
20260504185901 12 62 9.7 0.0 0.00 0.00 0.00 87 1013.2
20260504185801 12 62 9.7 0.0 0.00 0.00 0.00 87 1013.2
20260504185702 12 62 9.7 0.0 0.00 0.00 0.00 87 1013.2
20260504185601 12 57 9.7 0.0 0.00 0.00 0.00 86 1013.2
20260504185502 12 57 9.7 0.0 0.00 0.00 0.00 86 1013.2
20260504185401 12 57 9.7 0.0 0.00 0.00 0.00 86 1013.2
20260504185304 12 62 12.9 0.0 0.00 0.00 0.00 86 1013.2
20260504185202 12 62 12.9 0.0 0.00 0.00 0.00 86 1013.2
20260504185102 12 75 11.3 0.0 0.00 0.00 0.00 86 1013.2
20260504185002 12 75 11.3 0.0 0.00 0.00 0.00 86 1013.2
20260504184902 12 80 4.8 0.0 0.00 0.00 0.00 86 1013.2
20260504184802 12 75 9.7 0.0 0.00 0.00 0.00 85 1013.2
20260504184701 12 75 9.7 0.0 0.00 0.00 0.00 85 1013.2
20260504184602 13 62 12.9 0.0 0.00 0.00 0.00 84 1013.2
20260504184501 13 62 12.9 0.0 0.00 0.00 0.00 84 1013.2
20260504184402 13 62 12.9 0.0 0.00 0.00 0.00 84 1013.2
20260504184301 13 62 12.9 0.0 0.00 0.00 0.00 84 1013.2
20260504184202 13 62 12.9 0.0 0.00 0.00 0.00 84 1013.2
20260504184101 13 62 12.9 0.0 0.00 0.00 0.00 84 1013.2
20260504184002 13 62 12.9 0.0 0.00 0.00 0.00 84 1013.2
20260504183901 13 62 12.9 0.0 0.00 0.00 0.00 84 1013.2
20260504183802 13 75 8.0 0.0 0.00 0.00 0.00 83 1013.2
20260504183703 13 75 8.0 0.0 0.00 0.00 0.00 83 1013.2
20260504183602 13 75 8.0 0.0 0.00 0.00 0.00 83 1013.2
20260504183502 13 75 8.0 0.0 0.00 0.00 0.00 83 1013.2
20260504183401 13 75 8.0 0.0 0.00 0.00 0.00 83 1013.2
20260504183302 13 75 8.0 0.0 0.00 0.00 0.00 83 1013.2
20260504183202 13 75 8.0 0.0 0.00 0.00 0.00 83 1013.2
20260504183102 13 75 8.0 0.0 0.00 0.00 0.00 83 1013.2
20260504183001 13 75 9.7 0.0 0.00 0.00 0.00 82 1013.2
20260504182902 13 75 9.7 0.0 0.00 0.00 0.00 82 1013.2
20260504182801 13 75 9.7 0.0 0.00 0.00 0.00 82 1013.2
20260504182702 13 75 9.7 0.0 0.00 0.00 0.00 82 1013.2
20260504182601 13 77 6.4 0.0 0.00 0.00 0.00 82 1013.2
20260504182502 13 77 6.4 0.0 0.00 0.00 0.00 82 1013.2
20260504182402 13 77 6.4 0.0 0.00 0.00 0.00 82 1013.2
20260504182301 13 80 0.0 0.0 0.00 0.00 0.00 82 1013.2
20260504182202 13 80 0.0 0.0 0.00 0.00 0.00 82 1013.2
20260504182101 13 80 0.0 0.0 0.00 0.00 0.00 82 1013.2
20260504182002 13 80 0.0 0.0 0.00 0.00 0.00 82 1013.2
20260504181901 13 80 0.0 0.0 0.00 0.00 0.00 82 1013.2
20260504181802 13 82 6.4 0.0 0.00 0.00 0.00 82 1013.2
20260504181702 13 82 6.4 0.0 0.00 0.00 0.00 82 1013.2
20260504181601 13 82 0.0 0.0 0.00 0.00 0.00 81 1013.2
20260504181502 13 82 0.0 0.0 0.00 0.00 0.00 81 1013.2
20260504181401 13 82 0.0 0.0 0.00 0.00 0.00 81 1013.2
20260504181302 13 90 9.7 0.0 0.00 0.00 0.00 81 1013.2
20260504181201 13 90 9.7 0.0 0.00 0.00 0.00 81 1013.2
20260504181102 13 92 9.7 0.0 0.00 0.00 0.00 81 1013.2
20260504181001 13 92 9.7 0.0 0.00 0.00 0.00 81 1013.2
20260504180902 13 92 9.7 0.0 0.00 0.00 0.00 81 1013.2
20260504180802 13 95 3.2 0.0 0.00 0.00 0.00 81 1013.2
20260504180702 13 95 3.2 0.0 0.00 0.00 0.00 81 1013.2
20260504180602 13 95 3.2 0.0 0.00 0.00 0.00 81 1013.2
20260504180502 13 145 0.0 0.0 0.00 0.00 0.00 81 1013.2
20260504180402 13 145 0.0 0.0 0.00 0.00 0.00 81 1013.2
20260504180301 13 145 0.0 0.0 0.00 0.00 0.00 81 1013.2
20260504180202 13 145 0.0 0.0 0.00 0.00 0.00 81 1013.2
20260504180002 13 165 0.0 0.0 0.00 0.00 0.00 81 1013.2
20260504175902 13 165 0.0 0.0 0.00 0.00 0.00 81 1013.2
20260504175801 13 165 0.0 0.0 0.00 0.00 0.00 81 1013.2
20260504175702 13 177 0.0 0.0 0.00 0.00 0.00 81 1013.2
20260504175601 13 177 0.0 0.0 0.00 0.00 0.00 81 1013.2
20260504175502 13 175 0.0 0.0 0.00 0.00 0.00 81 1013.2
20260504175401 13 175 0.0 0.0 0.00 0.00 0.00 81 1013.2
20260504175304 13 195 0.0 0.0 0.00 0.00 0.00 81 1013.2
20260504175202 13 195 0.0 0.0 0.00 0.00 0.00 81 1013.2
20260504175101 13 195 0.0 0.0 0.00 0.00 0.00 81 1013.2
20260504175002 13 195 0.0 0.0 0.00 0.00 0.00 81 1013.2
20260504174901 13 195 0.0 0.0 0.00 0.00 0.00 81 1013.2
20260504174802 13 192 0.0 0.0 0.00 0.00 0.00 80 1013.2
20260504174701 13 192 0.0 0.0 0.00 0.00 0.00 80 1013.2
20260504174602 13 192 0.0 0.0 0.00 0.00 0.00 80 1013.2
20260504174502 13 210 0.0 0.0 0.00 0.00 0.00 80 1013.2
20260504174402 13 210 0.0 0.0 0.00 0.00 0.00 80 1013.2
20260504174302 14 140 0.0 0.0 0.00 0.00 0.00 80 1013.2
20260504174201 14 140 0.0 0.0 0.00 0.00 0.00 80 1013.2
20260504174102 14 140 0.0 0.0 0.00 0.00 0.00 80 1013.2
20260504174001 14 140 0.0 0.0 0.00 0.00 0.00 80 1013.2
20260504173902 14 140 0.0 0.0 0.00 0.00 0.00 80 1013.2
20260504173801 14 140 0.0 0.0 0.00 0.00 0.00 80 1013.2
20260504173702 14 132 0.0 0.0 0.00 0.00 0.00 79 1013.2
20260504173602 14 132 0.0 0.0 0.00 0.00 0.00 79 1013.2
20260504173502 14 210 0.0 0.0 0.00 0.00 0.00 79 1013.2
20260504173402 14 210 0.0 0.0 0.00 0.00 0.00 79 1013.2
20260504173303 14 210 0.0 0.0 0.00 0.00 0.00 79 1013.2
20260504173202 14 250 0.0 0.0 0.00 0.00 0.00 78 1013.2
20260504173102 14 250 0.0 0.0 0.00 0.00 0.00 78 1013.2
20260504173001 14 250 0.0 0.0 0.00 0.00 0.00 78 1013.2
20260504172902 14 250 0.0 0.0 0.00 0.00 0.00 78 1013.2
20260504172801 14 285 0.0 0.0 0.00 0.00 0.00 79 1013.2
20260504172702 14 285 0.0 0.0 0.00 0.00 0.00 79 1013.2
20260504172601 14 285 0.0 0.0 0.00 0.00 0.00 79 1013.2
20260504172502 14 327 0.0 0.0 0.00 0.00 0.00 78 1013.2
20260504172402 14 327 0.0 0.0 0.00 0.00 0.00 78 1013.2
20260504172301 14 327 0.0 0.0 0.00 0.00 0.00 78 1013.2
20260504172202 14 327 0.0 0.0 0.00 0.00 0.00 78 1013.2
20260504172101 14 327 0.0 0.0 0.00 0.00 0.00 78 1013.2
20260504172002 14 332 0.0 0.0 0.00 0.00 0.00 78 1013.2
20260504171902 14 340 0.0 0.0 0.00 0.00 0.00 79 1013.2
20260504171802 14 340 0.0 0.0 0.00 0.00 0.00 79 1013.2
20260504171701 14 340 0.0 0.0 0.00 0.00 0.00 79 1013.2
20260504171602 14 340 0.0 0.0 0.00 0.00 0.00 79 1013.2
20260504171502 14 340 0.0 0.0 0.00 0.00 0.00 79 1013.2
20260504171401 14 0 4.8 0.0 0.00 0.00 0.00 79 1013.2
20260504171302 14 0 4.8 0.0 0.00 0.00 0.00 79 1013.2
20260504171201 14 0 4.8 0.0 0.00 0.00 0.00 79 1013.2
20260504171102 14 12 0.0 0.0 0.00 0.00 0.00 79 1013.2
20260504171001 14 12 0.0 0.0 0.00 0.00 0.00 79 1013.2
20260504170902 14 20 9.7 0.0 0.00 0.00 0.00 79 1013.2
20260504170801 14 20 9.7 0.0 0.00 0.00 0.00 79 1013.2
20260504170702 15 25 9.7 0.0 0.00 0.00 0.00 78 1013.2
20260504170601 15 25 9.7 0.0 0.00 0.00 0.00 78 1013.2
20260504170502 15 25 9.7 0.0 0.00 0.00 0.00 78 1013.2
20260504170402 15 30 12.9 0.0 0.00 0.00 0.00 77 1013.2
20260504170301 15 30 12.9 0.0 0.00 0.00 0.00 77 1013.2
20260504170202 15 30 12.9 0.0 0.00 0.00 0.00 77 1013.2
20260504160402 16 80 6.4 0.0 0.00 0.00 0.00 68 1013.1
20260504160301 16 80 6.4 0.0 0.00 0.00 0.00 68 1013.1
20260504160202 16 80 6.4 0.0 0.00 0.00 0.00 68 1013.1
20260504151102 17 70 8.0 0.0 0.00 0.00 0.00 62 1013.2
20260504151002 17 70 8.0 0.0 0.00 0.00 0.00 62 1013.2
20260504150902 17 70 8.0 0.0 0.00 0.00 0.00 62 1013.3
20260504150801 17 70 8.0 0.0 0.00 0.00 0.00 62 1013.2
20260504150702 18 67 6.4 0.0 0.00 0.00 0.00 63 1013.2
20260504150601 18 67 6.4 0.0 0.00 0.00 0.00 63 1013.2
20260504150502 18 62 9.7 0.0 0.00 0.00 0.00 59 1013.2
20260504150401 18 62 9.7 0.0 0.00 0.00 0.00 59 1013.2
20260504150302 18 12 0.0 0.0 0.00 0.00 0.00 58 1013.2
20260504150202 18 12 0.0 0.0 0.00 0.00 0.00 58 1013.2
20260504141302 19 70 9.7 0.0 0.00 0.00 0.00 60 1013.6
20260504141202 19 62 12.9 0.0 0.00 0.00 0.00 60 1013.6
20260504141102 19 62 12.9 0.0 0.00 0.00 0.00 60 1013.6
20260504141002 19 62 12.9 0.0 0.00 0.00 0.00 60 1013.6
20260504140901 19 72 20.9 0.0 0.00 0.00 0.00 60 1013.6
20260504140802 18 10 6.4 0.0 0.00 0.00 0.00 61 1013.6
20260504140701 18 10 6.4 0.0 0.00 0.00 0.00 61 1013.6
20260504140602 18 10 6.4 0.0 0.00 0.00 0.00 61 1013.6
20260504140501 18 10 6.4 0.0 0.00 0.00 0.00 61 1013.7
20260504140402 18 10 6.4 0.0 0.00 0.00 0.00 61 1013.6
20260504140301 18 10 6.4 0.0 0.00 0.00 0.00 61 1013.6
20260504140202 18 62 0.0 0.0 0.00 0.00 0.00 60 1013.6
20260504130802 17 55 6.4 0.0 0.00 0.00 0.00 64 1013.9
20260504130702 17 55 6.4 0.0 0.00 0.00 0.00 64 1014.0
20260504130601 17 45 8.0 0.0 0.00 0.00 0.00 63 1014.0
20260504130502 17 45 8.0 0.0 0.00 0.00 0.00 63 1014.0
20260504130401 17 45 8.0 0.0 0.00 0.00 0.00 63 1014.0
20260504130302 17 7 0.0 0.0 0.00 0.00 0.00 63 1014.0
20260504130201 17 7 0.0 0.0 0.00 0.00 0.00 63 1014.0
20260504120302 16 32 9.7 0.0 0.00 0.00 0.00 69 1014.4
20260504120202 17 30 14.5 0.0 0.00 0.00 0.00 68 1014.3
20260504110702 15 25 11.3 0.0 0.00 0.00 0.00 74 1014.5
20260504110601 15 25 11.3 0.0 0.00 0.00 0.00 74 1014.5
20260504110502 15 25 11.3 0.0 0.00 0.00 0.00 74 1014.5
20260504110402 15 37 9.7 0.0 0.00 0.00 0.00 73 1014.5
20260504110302 15 37 9.7 0.0 0.00 0.00 0.00 73 1014.6
20260504110202 15 57 9.7 0.0 0.00 0.00 0.00 73 1014.5
20260504100602 16 20 9.7 0.0 0.00 0.00 0.00 74 1014.9
20260504100502 16 20 9.7 0.0 0.00 0.00 0.00 74 1014.9
20260504100402 16 20 9.7 0.0 0.00 0.00 0.00 74 1014.9
20260504100302 16 27 9.7 0.0 0.00 0.00 0.00 75 1014.9
20260504100201 16 32 24.1 0.0 0.00 0.00 0.00 75 1014.9
20260504082002 12 67 11.3 0.0 0.00 0.00 0.00 80 1015.1
20260504081902 12 67 11.3 0.0 0.00 0.00 0.00 80 1015.1
20260504081802 12 67 11.3 0.0 0.00 0.00 0.00 80 1015.1
20260504081702 12 45 12.9 0.0 0.00 0.00 0.00 80 1015.1
20260504081601 12 45 12.9 0.0 0.00 0.00 0.00 80 1015.1
20260504081502 12 45 12.9 0.0 0.00 0.00 0.00 80 1015.1
20260504081401 12 45 8.0 0.0 0.00 0.00 0.00 79 1015.1
20260504081302 12 45 8.0 0.0 0.00 0.00 0.00 79 1015.1
20260504081202 12 57 9.7 0.0 0.00 0.00 0.00 80 1015.1
20260504081102 12 57 9.7 0.0 0.00 0.00 0.00 80 1015.1
20260504081002 12 57 9.7 0.0 0.00 0.00 0.00 80 1015.1
20260504080901 12 30 12.9 0.0 0.00 0.00 0.00 79 1015.1
20260504080802 12 30 12.9 0.0 0.00 0.00 0.00 79 1015.1
20260504080701 12 30 12.9 0.0 0.00 0.00 0.00 79 1015.1
20260504080602 12 30 12.9 0.0 0.00 0.00 0.00 79 1015.1
20260504080502 12 30 12.9 0.0 0.00 0.00 0.00 79 1015.1
20260504080402 12 30 12.9 0.0 0.00 0.00 0.00 79 1015.1
20260504080302 12 30 12.9 0.0 0.00 0.00 0.00 79 1015.1
20260504080201 12 30 12.9 0.0 0.00 0.00 0.00 79 1015.1
20260504070402 13 57 9.7 0.0 0.00 0.00 0.00 79 1014.3
20260504070301 12 60 9.7 0.0 0.00 0.00 0.00 78 1014.3
20260504070202 12 60 9.7 0.0 0.00 0.00 0.00 78 1014.2
20260504060202 11 32 9.7 0.0 0.00 0.00 0.00 78 1013.9
20260504050602 11 40 8.0 0.0 0.00 0.00 0.00 79 1013.6
20260504050501 11 40 8.0 0.0 0.00 0.00 0.00 79 1013.6
20260504050402 11 40 8.0 0.0 0.00 0.00 0.00 79 1013.6
20260504050301 11 37 9.7 0.0 0.00 0.00 0.00 78 1013.6
20260504050202 11 37 9.7 0.0 0.00 0.00 0.00 78 1013.6
20260504050002 11 22 8.0 0.0 0.00 0.00 0.00 78 1013.6
20260504045902 11 27 9.7 0.0 0.00 0.00 0.00 78 1013.6
20260504045801 11 27 9.7 0.0 0.00 0.00 0.00 78 1013.6
20260504045702 11 27 9.7 0.0 0.00 0.00 0.00 78 1013.6
20260504045601 11 37 8.0 0.0 0.00 0.00 0.00 78 1013.6
20260504045502 11 37 8.0 0.0 0.00 0.00 0.00 78 1013.6
20260504045402 11 42 8.0 0.0 0.00 0.00 0.00 78 1013.6
20260504045304 11 42 8.0 0.0 0.00 0.00 0.00 78 1013.5
20260504045202 11 42 8.0 0.0 0.00 0.00 0.00 78 1013.5
20260504045101 11 37 9.7 0.0 0.00 0.00 0.00 78 1013.6
20260504045002 11 37 9.7 0.0 0.00 0.00 0.00 78 1013.6
20260504044901 11 37 9.7 0.0 0.00 0.00 0.00 78 1013.6
20260504044802 11 40 6.4 0.0 0.00 0.00 0.00 78 1013.6
20260504044702 11 40 6.4 0.0 0.00 0.00 0.00 78 1013.6
20260504044602 11 40 6.4 0.0 0.00 0.00 0.00 78 1013.6
20260504044502 11 40 6.4 0.0 0.00 0.00 0.00 78 1013.5
20260504044401 11 40 6.4 0.0 0.00 0.00 0.00 78 1013.5
20260504044302 11 47 8.0 0.0 0.00 0.00 0.00 78 1013.6
20260504044201 11 47 8.0 0.0 0.00 0.00 0.00 78 1013.6
20260504044102 11 47 8.0 0.0 0.00 0.00 0.00 78 1013.6
20260504044002 11 50 9.7 0.0 0.00 0.00 0.00 78 1013.6
20260504043902 11 50 9.7 0.0 0.00 0.00 0.00 78 1013.6
20260504043802 11 50 8.0 0.0 0.00 0.00 0.00 78 1013.7
20260504043701 11 50 8.0 0.0 0.00 0.00 0.00 78 1013.6
20260504043602 11 50 8.0 0.0 0.00 0.00 0.00 78 1013.7
20260504043501 11 50 8.0 0.0 0.00 0.00 0.00 78 1013.7
20260504043402 11 50 8.0 0.0 0.00 0.00 0.00 78 1013.7
20260504043301 11 45 8.0 0.0 0.00 0.00 0.00 78 1013.6
20260504043202 11 45 8.0 0.0 0.00 0.00 0.00 78 1013.6
20260504043102 11 45 8.0 0.0 0.00 0.00 0.00 78 1013.6
20260504043002 11 47 9.7 0.0 0.00 0.00 0.00 78 1013.7
20260504042902 11 47 9.7 0.0 0.00 0.00 0.00 78 1013.6
20260504042801 11 47 9.7 0.0 0.00 0.00 0.00 78 1013.6
20260504042702 11 47 9.7 0.0 0.00 0.00 0.00 78 1013.6
20260504042601 11 45 8.0 0.0 0.00 0.00 0.00 78 1013.5
20260504042502 11 45 8.0 0.0 0.00 0.00 0.00 78 1013.6
20260504042402 11 45 8.0 0.0 0.00 0.00 0.00 78 1013.5
20260504042304 11 50 12.9 0.0 0.00 0.00 0.00 78 1013.6
20260504042201 11 50 12.9 0.0 0.00 0.00 0.00 78 1013.6
20260504042101 11 50 12.9 0.0 0.00 0.00 0.00 78 1013.5
20260504042002 11 50 12.9 0.0 0.00 0.00 0.00 78 1013.5
20260504041901 11 50 12.9 0.0 0.00 0.00 0.00 78 1013.5
20260504041802 11 50 12.9 0.0 0.00 0.00 0.00 78 1013.5
20260504041701 11 50 12.9 0.0 0.00 0.00 0.00 78 1013.5
20260504041602 11 50 12.9 0.0 0.00 0.00 0.00 78 1013.4
20260504041501 11 35 8.0 0.0 0.00 0.00 0.00 78 1013.5
20260504041402 11 35 8.0 0.0 0.00 0.00 0.00 78 1013.5
20260504041302 11 37 9.7 0.0 0.00 0.00 0.00 77 1013.4
20260504041201 11 37 9.7 0.0 0.00 0.00 0.00 77 1013.5
20260504041102 11 37 9.7 0.0 0.00 0.00 0.00 77 1013.4
20260504041001 11 42 9.7 0.0 0.00 0.00 0.00 77 1013.5
20260504040902 11 42 9.7 0.0 0.00 0.00 0.00 77 1013.5
20260504040801 11 50 9.7 0.0 0.00 0.00 0.00 78 1013.5
20260504040702 11 50 9.7 0.0 0.00 0.00 0.00 78 1013.5
20260504040601 11 50 9.7 0.0 0.00 0.00 0.00 78 1013.5
20260504040502 11 50 8.0 0.0 0.00 0.00 0.00 77 1013.5
20260504040401 11 50 8.0 0.0 0.00 0.00 0.00 77 1013.5
20260504040301 11 55 12.9 0.0 0.00 0.00 0.00 77 1013.5
20260504040202 11 55 12.9 0.0 0.00 0.00 0.00 77 1013.5
20260504040002 11 55 9.7 0.0 0.00 0.00 0.00 77 1013.4
20260504035901 11 55 9.7 0.0 0.00 0.00 0.00 77 1013.5
20260504035802 11 40 11.3 0.0 0.00 0.00 0.00 77 1013.5
20260504035702 11 40 11.3 0.0 0.00 0.00 0.00 77 1013.5
20260504035602 11 40 11.3 0.0 0.00 0.00 0.00 77 1013.4
20260504035502 11 37 11.3 0.0 0.00 0.00 0.00 77 1013.4
20260504035401 11 37 11.3 0.0 0.00 0.00 0.00 77 1013.5
20260504035302 11 42 9.7 0.0 0.00 0.00 0.00 78 1013.5
20260504035201 11 42 9.7 0.0 0.00 0.00 0.00 78 1013.4
20260504035102 11 42 9.7 0.0 0.00 0.00 0.00 78 1013.4
20260504035001 11 35 8.0 0.0 0.00 0.00 0.00 78 1013.4
20260504034902 11 35 8.0 0.0 0.00 0.00 0.00 78 1013.5
20260504034802 11 35 8.0 0.0 0.00 0.00 0.00 78 1013.4
20260504034702 11 35 8.0 0.0 0.00 0.00 0.00 78 1013.4
20260504034602 11 35 8.0 0.0 0.00 0.00 0.00 78 1013.4
20260504034502 11 40 9.7 0.0 0.00 0.00 0.00 78 1013.4
20260504034402 11 40 9.7 0.0 0.00 0.00 0.00 78 1013.4
20260504034301 11 40 8.0 0.0 0.00 0.00 0.00 78 1013.4
20260504034202 11 40 8.0 0.0 0.00 0.00 0.00 78 1013.4
20260504034101 11 40 8.0 0.0 0.00 0.00 0.00 78 1013.4
20260504034002 11 35 8.0 0.0 0.00 0.00 0.00 78 1013.4
20260504033901 11 35 8.0 0.0 0.00 0.00 0.00 78 1013.4
20260504033802 11 35 8.0 0.0 0.00 0.00 0.00 78 1013.4
20260504033701 11 47 8.0 0.0 0.00 0.00 0.00 78 1013.4
20260504033602 11 47 8.0 0.0 0.00 0.00 0.00 78 1013.4
20260504033502 11 47 8.0 0.0 0.00 0.00 0.00 78 1013.4
20260504033401 11 47 8.0 0.0 0.00 0.00 0.00 78 1013.4
20260504033302 11 67 8.0 0.0 0.00 0.00 0.00 78 1013.3
20260504033201 11 67 8.0 0.0 0.00 0.00 0.00 78 1013.3
20260504033102 11 67 8.0 0.0 0.00 0.00 0.00 78 1013.3
20260504033001 11 47 8.0 0.0 0.00 0.00 0.00 78 1013.3
20260504032902 11 47 8.0 0.0 0.00 0.00 0.00 78 1013.3
20260504032802 11 47 8.0 0.0 0.00 0.00 0.00 78 1013.3
20260504032702 11 47 8.0 0.0 0.00 0.00 0.00 78 1013.3
20260504032602 11 47 8.0 0.0 0.00 0.00 0.00 78 1013.3
20260504032501 11 47 8.0 0.0 0.00 0.00 0.00 78 1013.3
20260504032402 11 47 8.0 0.0 0.00 0.00 0.00 78 1013.3
20260504032303 11 47 8.0 0.0 0.00 0.00 0.00 78 1013.3
20260504032202 11 47 8.0 0.0 0.00 0.00 0.00 78 1013.3
20260504032102 11 47 8.0 0.0 0.00 0.00 0.00 78 1013.3
20260504032002 11 37 9.7 0.0 0.00 0.00 0.00 78 1013.3
20260504031902 11 37 9.7 0.0 0.00 0.00 0.00 78 1013.3
20260504031801 11 37 9.7 0.0 0.00 0.00 0.00 78 1013.3
20260504031702 11 37 6.4 0.0 0.00 0.00 0.00 78 1013.3
20260504031601 11 37 6.4 0.0 0.00 0.00 0.00 78 1013.2
20260504031502 11 37 6.4 0.0 0.00 0.00 0.00 78 1013.3
20260504031401 10 55 6.4 0.0 0.00 0.00 0.00 78 1013.3
20260504031302 10 55 6.4 0.0 0.00 0.00 0.00 78 1013.3
20260504031202 10 60 6.4 0.0 0.00 0.00 0.00 78 1013.4
20260504031102 10 60 6.4 0.0 0.00 0.00 0.00 78 1013.3
20260504031002 10 62 4.8 0.0 0.00 0.00 0.00 78 1013.3
20260504030901 10 62 4.8 0.0 0.00 0.00 0.00 78 1013.3
20260504030802 10 62 4.8 0.0 0.00 0.00 0.00 78 1013.3
20260504030701 10 57 6.4 0.0 0.00 0.00 0.00 78 1013.3
20260504030602 10 57 6.4 0.0 0.00 0.00 0.00 78 1013.4
20260504030501 10 57 6.4 0.0 0.00 0.00 0.00 78 1013.3
20260504030402 10 55 6.4 0.0 0.00 0.00 0.00 78 1013.3
20260504030302 10 55 6.4 0.0 0.00 0.00 0.00 78 1013.4
20260504030201 10 55 6.4 0.0 0.00 0.00 0.00 78 1013.4
20260504030001 10 57 8.0 0.0 0.00 0.00 0.00 79 1013.4
20260504025902 10 45 6.4 0.0 0.00 0.00 0.00 79 1013.4
20260504025802 10 45 6.4 0.0 0.00 0.00 0.00 79 1013.4
20260504025702 10 45 6.4 0.0 0.00 0.00 0.00 79 1013.3
20260504025602 10 57 8.0 0.0 0.00 0.00 0.00 79 1013.4
20260504025501 10 57 8.0 0.0 0.00 0.00 0.00 79 1013.4
20260504025402 10 50 6.4 0.0 0.00 0.00 0.00 79 1013.5
20260504025304 10 50 6.4 0.0 0.00 0.00 0.00 79 1013.4
20260504025202 10 50 6.4 0.0 0.00 0.00 0.00 79 1013.4
20260504025102 10 62 4.8 0.0 0.00 0.00 0.00 79 1013.5
20260504025002 10 62 4.8 0.0 0.00 0.00 0.00 79 1013.4
20260504024902 10 62 4.8 0.0 0.00 0.00 0.00 79 1013.4
20260504024801 10 62 4.8 0.0 0.00 0.00 0.00 79 1013.4
20260504024702 10 62 4.8 0.0 0.00 0.00 0.00 79 1013.4
20260504024601 10 55 6.4 0.0 0.00 0.00 0.00 79 1013.4
20260504024502 10 55 6.4 0.0 0.00 0.00 0.00 79 1013.5
20260504024401 10 47 6.4 0.0 0.00 0.00 0.00 79 1013.5
20260504024302 10 47 6.4 0.0 0.00 0.00 0.00 79 1013.5
20260504024201 10 47 6.4 0.0 0.00 0.00 0.00 79 1013.5
20260504024102 10 57 6.4 0.0 0.00 0.00 0.00 79 1013.5
20260504024002 10 57 6.4 0.0 0.00 0.00 0.00 79 1013.5
20260504023901 10 72 6.4 0.0 0.00 0.00 0.00 79 1013.4
20260504023802 10 72 6.4 0.0 0.00 0.00 0.00 79 1013.5
20260504023701 10 72 6.4 0.0 0.00 0.00 0.00 79 1013.4
20260504023602 10 45 8.0 0.0 0.00 0.00 0.00 79 1013.5
20260504023501 10 45 8.0 0.0 0.00 0.00 0.00 79 1013.5
20260504023401 10 45 8.0 0.0 0.00 0.00 0.00 79 1013.5
20260504023302 10 45 8.0 0.0 0.00 0.00 0.00 79 1013.5
20260504023201 10 45 8.0 0.0 0.00 0.00 0.00 79 1013.5
20260504023102 10 60 8.0 0.0 0.00 0.00 0.00 79 1013.5
20260504023002 10 60 8.0 0.0 0.00 0.00 0.00 79 1013.5
20260504022902 10 60 8.0 0.0 0.00 0.00 0.00 79 1013.6
20260504022802 10 67 6.4 0.0 0.00 0.00 0.00 79 1013.5
20260504022701 10 67 6.4 0.0 0.00 0.00 0.00 79 1013.5
20260504022602 10 62 6.4 0.0 0.00 0.00 0.00 79 1013.5
20260504022501 10 62 6.4 0.0 0.00 0.00 0.00 79 1013.5
20260504022402 10 67 6.4 0.0 0.00 0.00 0.00 79 1013.5
20260504022301 10 67 6.4 0.0 0.00 0.00 0.00 79 1013.5
20260504022202 10 67 6.4 0.0 0.00 0.00 0.00 79 1013.5
20260504022102 10 75 6.4 0.0 0.00 0.00 0.00 79 1013.5
20260504022001 10 75 6.4 0.0 0.00 0.00 0.00 79 1013.5
20260504021902 10 75 6.4 0.0 0.00 0.00 0.00 79 1013.5
20260504021801 10 77 8.0 0.0 0.00 0.00 0.00 79 1013.5
20260504021702 10 77 8.0 0.0 0.00 0.00 0.00 79 1013.5
20260504021602 10 72 8.0 0.0 0.00 0.00 0.00 79 1013.5
20260504021502 10 72 8.0 0.0 0.00 0.00 0.00 79 1013.5
20260504021401 10 70 6.4 0.0 0.00 0.00 0.00 79 1013.5
20260504021302 10 70 6.4 0.0 0.00 0.00 0.00 79 1013.5
20260504021202 10 70 6.4 0.0 0.00 0.00 0.00 79 1013.4
20260504021101 10 72 4.8 0.0 0.00 0.00 0.00 79 1013.5
20260504021002 10 72 4.8 0.0 0.00 0.00 0.00 79 1013.5
20260504020902 10 72 4.8 0.0 0.00 0.00 0.00 79 1013.5
20260504020802 10 75 8.0 0.0 0.00 0.00 0.00 79 1013.5
20260504020701 10 75 8.0 0.0 0.00 0.00 0.00 79 1013.5
20260504020601 10 75 8.0 0.0 0.00 0.00 0.00 79 1013.5
20260504020502 10 80 8.0 0.0 0.00 0.00 0.00 79 1013.5
20260504020401 10 80 8.0 0.0 0.00 0.00 0.00 79 1013.5
20260504020302 10 72 8.0 0.0 0.00 0.00 0.00 79 1013.6
20260504020201 10 72 8.0 0.0 0.00 0.00 0.00 79 1013.5
20260504020002 10 65 6.4 0.0 0.00 0.00 0.00 79 1013.5
20260504015902 10 65 6.4 0.0 0.00 0.00 0.00 79 1013.5
20260504015802 10 57 8.0 0.0 0.00 0.00 0.00 79 1013.5
20260504015701 10 57 8.0 0.0 0.00 0.00 0.00 79 1013.4
20260504015602 10 57 8.0 0.0 0.00 0.00 0.00 79 1013.4
20260504015502 10 57 6.4 0.0 0.00 0.00 0.00 79 1013.4
20260504015402 10 57 6.4 0.0 0.00 0.00 0.00 79 1013.4
20260504015301 10 70 6.4 0.0 0.00 0.00 0.00 78 1013.4
20260504015202 10 70 6.4 0.0 0.00 0.00 0.00 78 1013.3
20260504015102 10 80 6.4 0.0 0.00 0.00 0.00 78 1013.3
20260504015001 10 80 6.4 0.0 0.00 0.00 0.00 78 1013.3
20260504014902 10 80 6.4 0.0 0.00 0.00 0.00 78 1013.3
20260504014801 10 70 0.0 0.0 0.00 0.00 0.00 78 1013.3
20260504014702 10 70 0.0 0.0 0.00 0.00 0.00 78 1013.3
20260504014601 10 70 0.0 0.0 0.00 0.00 0.00 78 1013.3
20260504014502 10 82 9.7 0.0 0.00 0.00 0.00 77 1013.3
20260504014402 10 82 9.7 0.0 0.00 0.00 0.00 77 1013.3
20260504014302 10 82 9.7 0.0 0.00 0.00 0.00 77 1013.3
20260504014202 10 82 9.7 0.0 0.00 0.00 0.00 77 1013.2
20260504014101 10 82 9.7 0.0 0.00 0.00 0.00 77 1013.2
20260504014002 10 82 9.7 0.0 0.00 0.00 0.00 77 1013.2
20260504013901 10 82 9.7 0.0 0.00 0.00 0.00 77 1013.2
20260504013802 10 87 9.7 0.0 0.00 0.00 0.00 77 1013.2
20260504013701 10 87 9.7 0.0 0.00 0.00 0.00 77 1013.2
20260504013601 10 87 9.7 0.0 0.00 0.00 0.00 77 1013.2
20260504013502 10 82 8.0 0.0 0.00 0.00 0.00 77 1013.2
20260504013401 10 82 8.0 0.0 0.00 0.00 0.00 77 1013.2
20260504013302 10 82 8.0 0.0 0.00 0.00 0.00 77 1013.1
20260504013201 10 80 8.0 0.0 0.00 0.00 0.00 77 1013.1
20260504013102 10 80 8.0 0.0 0.00 0.00 0.00 77 1013.1
20260504013002 10 77 8.0 0.0 0.00 0.00 0.00 77 1013.1
20260504012901 10 77 8.0 0.0 0.00 0.00 0.00 77 1013.1
20260504012802 10 72 8.0 0.0 0.00 0.00 0.00 77 1013.2
20260504012701 10 72 8.0 0.0 0.00 0.00 0.00 77 1013.2
20260504012602 10 72 8.0 0.0 0.00 0.00 0.00 77 1013.2
20260504012501 10 72 8.0 0.0 0.00 0.00 0.00 77 1013.2
20260504012402 10 72 8.0 0.0 0.00 0.00 0.00 77 1013.2
20260504012304 10 72 8.0 0.0 0.00 0.00 0.00 77 1013.2
20260504012202 10 75 0.0 0.0 0.00 0.00 0.00 77 1013.2
20260504012102 10 75 0.0 0.0 0.00 0.00 0.00 77 1013.2
20260504012001 10 75 8.0 0.0 0.00 0.00 0.00 77 1013.2
20260504011902 10 75 8.0 0.0 0.00 0.00 0.00 77 1013.2
20260504011801 10 75 8.0 0.0 0.00 0.00 0.00 77 1013.2
20260504011702 10 75 8.0 0.0 0.00 0.00 0.00 77 1013.2
20260504011601 10 75 8.0 0.0 0.00 0.00 0.00 77 1013.3
20260504011502 10 72 8.0 0.0 0.00 0.00 0.00 76 1013.3
20260504011402 10 72 8.0 0.0 0.00 0.00 0.00 76 1013.4
20260504011302 11 65 8.0 0.0 0.00 0.00 0.00 75 1013.3
20260504011202 11 65 8.0 0.0 0.00 0.00 0.00 75 1013.4
20260504011101 11 65 8.0 0.0 0.00 0.00 0.00 75 1013.3
20260504011002 11 70 8.0 0.0 0.00 0.00 0.00 75 1013.3
20260504010901 11 70 8.0 0.0 0.00 0.00 0.00 75 1013.3
20260504010802 11 65 6.4 0.0 0.00 0.00 0.00 75 1013.4
20260504010702 11 65 6.4 0.0 0.00 0.00 0.00 75 1013.4
20260504010601 11 65 6.4 0.0 0.00 0.00 0.00 75 1013.3
20260504010502 11 70 8.0 0.0 0.00 0.00 0.00 74 1013.3
20260504010401 11 70 8.0 0.0 0.00 0.00 0.00 74 1013.3
20260504010302 11 57 8.0 0.0 0.00 0.00 0.00 74 1013.3
20260504010201 11 57 8.0 0.0 0.00 0.00 0.00 74 1013.3
20260504010002 11 57 8.0 0.0 0.00 0.00 0.00 74 1013.3
20260504005901 11 57 8.0 0.0 0.00 0.00 0.00 74 1013.3
20260504005802 11 50 6.4 0.0 0.00 0.00 0.00 73 1013.3
20260504005701 11 50 6.4 0.0 0.00 0.00 0.00 73 1013.3
20260504005602 11 50 6.4 0.0 0.00 0.00 0.00 73 1013.3
20260504005501 11 50 6.4 0.0 0.00 0.00 0.00 73 1013.3
20260504005402 11 50 6.4 0.0 0.00 0.00 0.00 73 1013.3
20260504005302 11 50 8.0 0.0 0.00 0.00 0.00 73 1013.4
20260504005202 11 50 8.0 0.0 0.00 0.00 0.00 73 1013.3
20260504005102 11 50 8.0 0.0 0.00 0.00 0.00 73 1013.3
20260504005001 11 45 9.7 0.0 0.00 0.00 0.00 73 1013.3
20260504004902 11 45 9.7 0.0 0.00 0.00 0.00 73 1013.3
20260504004802 11 45 9.7 0.0 0.00 0.00 0.00 73 1013.3
20260504004702 11 45 9.7 0.0 0.00 0.00 0.00 73 1013.3
20260504004601 11 45 9.7 0.0 0.00 0.00 0.00 73 1013.2
20260504004502 11 47 11.3 0.0 0.00 0.00 0.00 73 1013.3
20260504004402 11 47 11.3 0.0 0.00 0.00 0.00 73 1013.2
20260504004301 12 40 8.0 0.0 0.00 0.00 0.00 73 1013.3
20260504004202 12 40 8.0 0.0 0.00 0.00 0.00 73 1013.2
20260504004101 12 40 8.0 0.0 0.00 0.00 0.00 73 1013.2
20260504004002 12 45 9.7 0.0 0.00 0.00 0.00 72 1013.2
20260504003901 12 45 9.7 0.0 0.00 0.00 0.00 72 1013.2
20260504003802 12 45 9.7 0.0 0.00 0.00 0.00 72 1013.2
20260504003702 12 45 11.3 0.0 0.00 0.00 0.00 72 1013.2
20260504003601 12 45 11.3 0.0 0.00 0.00 0.00 72 1013.2
20260504003502 12 37 11.3 0.0 0.00 0.00 0.00 73 1013.2
20260504003401 12 37 11.3 0.0 0.00 0.00 0.00 73 1013.2
20260504003302 12 35 11.3 0.0 0.00 0.00 0.00 72 1013.2
20260504003201 12 35 11.3 0.0 0.00 0.00 0.00 72 1013.1
20260504003102 12 35 11.3 0.0 0.00 0.00 0.00 72 1013.2
20260504003002 12 30 11.3 0.0 0.00 0.00 0.00 73 1013.2
20260504002902 12 30 11.3 0.0 0.00 0.00 0.00 73 1013.2
20260504002802 12 30 11.3 0.0 0.00 0.00 0.00 73 1013.2
20260504002701 12 30 11.3 0.0 0.00 0.00 0.00 73 1013.2
20260504002602 12 30 11.3 0.0 0.00 0.00 0.00 73 1013.2
20260504002501 12 30 11.3 0.0 0.00 0.00 0.00 73 1013.2
20260504002402 12 30 11.3 0.0 0.00 0.00 0.00 73 1013.2
20260504002303 12 30 11.3 0.0 0.00 0.00 0.00 73 1013.2
20260504002102 11 35 14.5 0.0 0.00 0.00 0.00 74 1013.2
20260504002002 11 42 9.7 0.0 0.00 0.00 0.00 74 1013.2
20260504001902 11 42 9.7 0.0 0.00 0.00 0.00 74 1013.2
20260504001702 11 42 9.7 0.0 0.00 0.00 0.00 74 1013.2
20260504001601 11 42 9.7 0.0 0.00 0.00 0.00 74 1013.2
20260504001502 11 42 9.7 0.0 0.00 0.00 0.00 74 1013.2
20260504001401 11 42 9.7 0.0 0.00 0.00 0.00 74 1013.1
20260504001302 11 42 9.7 0.0 0.00 0.00 0.00 74 1013.2
20260504001202 11 37 9.7 0.0 0.00 0.00 0.00 74 1013.2
20260504001102 11 37 9.7 0.0 0.00 0.00 0.00 74 1013.1
20260504001002 11 42 9.7 0.0 0.00 0.00 0.00 74 1013.2
20260504000901 11 42 9.7 0.0 0.00 0.00 0.00 74 1013.2
20260504000802 11 42 9.7 0.0 0.00 0.00 0.00 74 1013.2
20260504000701 11 52 8.0 0.0 0.00 0.00 0.00 74 1013.2
20260504000602 11 52 8.0 0.0 0.00 0.00 0.00 74 1013.2
20260504000501 11 52 8.0 0.0 0.00 0.00 0.00 74 1013.2
20260504000402 11 42 6.4 0.0 0.00 0.00 0.00 74 1013.2
20260504000302 11 42 6.4 0.0 0.00 0.00 0.00 74 1013.2
20260504000201 11 42 6.4 0.0 0.00 0.00 0.00 74 1013.3
20260504000001 12 30 8.0 0.0 0.00 0.00 0.00 74 1013.2
20260503235902 12 37 8.0 0.0 0.00 0.00 0.00 73 1013.2
20260503235801 12 37 8.0 0.0 0.00 0.00 0.00 73 1013.2
20260503235701 12 37 8.0 0.0 0.00 0.00 0.00 73 1013.2
20260503235602 12 35 6.4 0.0 0.00 0.00 0.00 73 1013.2
20260503235501 12 35 6.4 0.0 0.00 0.00 0.00 73 1013.2
20260503235402 12 35 6.4 0.0 0.00 0.00 0.00 73 1013.2
20260503235301 12 35 6.4 0.0 0.00 0.00 0.00 73 1013.2
20260503235202 12 35 6.4 0.0 0.00 0.00 0.00 73 1013.2
20260503235102 12 35 8.0 0.0 0.00 0.00 0.00 74 1013.2
20260503235002 12 35 8.0 0.0 0.00 0.00 0.00 74 1013.3
20260503234902 11 55 9.7 0.0 0.00 0.00 0.00 74 1013.2
20260503234801 11 55 9.7 0.0 0.00 0.00 0.00 74 1013.3
20260503234702 11 55 9.7 0.0 0.00 0.00 0.00 74 1013.3
20260503234601 12 57 6.4 0.0 0.00 0.00 0.00 74 1013.3
20260503234502 12 57 6.4 0.0 0.00 0.00 0.00 74 1013.3
20260503234401 12 65 8.0 0.0 0.00 0.00 0.00 74 1013.3
20260503234302 12 65 8.0 0.0 0.00 0.00 0.00 74 1013.3
20260503234201 12 65 8.0 0.0 0.00 0.00 0.00 74 1013.3
20260503234102 12 70 6.4 0.0 0.00 0.00 0.00 73 1013.3
20260503234002 12 70 6.4 0.0 0.00 0.00 0.00 73 1013.3
20260503233901 12 75 8.0 0.0 0.00 0.00 0.00 73 1013.3
20260503233802 12 75 8.0 0.0 0.00 0.00 0.00 73 1013.3
20260503233701 12 75 8.0 0.0 0.00 0.00 0.00 73 1013.3
20260503233602 12 70 6.4 0.0 0.00 0.00 0.00 73 1013.3
20260503233501 12 70 6.4 0.0 0.00 0.00 0.00 73 1013.3
20260503233402 12 67 8.0 0.0 0.00 0.00 0.00 72 1013.3
20260503233301 12 67 8.0 0.0 0.00 0.00 0.00 72 1013.3
20260503233202 12 67 8.0 0.0 0.00 0.00 0.00 72 1013.3
20260503233102 12 67 8.0 0.0 0.00 0.00 0.00 72 1013.3
20260503232902 12 67 8.0 0.0 0.00 0.00 0.00 72 1013.3
20260503232801 12 70 6.4 0.0 0.00 0.00 0.00 72 1013.3
20260503232702 12 70 6.4 0.0 0.00 0.00 0.00 72 1013.3
20260503232601 12 65 8.0 0.0 0.00 0.00 0.00 71 1013.3
20260503232502 12 65 8.0 0.0 0.00 0.00 0.00 71 1013.3
20260503232402 12 60 8.0 0.0 0.00 0.00 0.00 71 1013.4
20260503232305 12 60 8.0 0.0 0.00 0.00 0.00 71 1013.4
20260503232202 12 60 8.0 0.0 0.00 0.00 0.00 71 1013.4
20260503232101 12 55 8.0 0.0 0.00 0.00 0.00 70 1013.4
20260503232002 12 55 8.0 0.0 0.00 0.00 0.00 70 1013.4
20260503231901 12 55 8.0 0.0 0.00 0.00 0.00 70 1013.4
20260503231802 12 60 8.0 0.0 0.00 0.00 0.00 70 1013.4
20260503231701 12 60 8.0 0.0 0.00 0.00 0.00 70 1013.4
20260503231602 12 55 9.7 0.0 0.00 0.00 0.00 70 1013.4
20260503231501 12 55 9.7 0.0 0.00 0.00 0.00 70 1013.4
20260503231402 12 55 11.3 0.0 0.00 0.00 0.00 70 1013.4
20260503231302 12 55 11.3 0.0 0.00 0.00 0.00 70 1013.4
20260503231202 12 55 11.3 0.0 0.00 0.00 0.00 70 1013.4
20260503231102 12 60 9.7 0.0 0.00 0.00 0.00 70 1013.4
20260503231001 12 60 9.7 0.0 0.00 0.00 0.00 70 1013.4
20260503230902 12 60 9.7 0.0 0.00 0.00 0.00 70 1013.4
20260503230801 12 65 8.0 0.0 0.00 0.00 0.00 69 1013.4
20260503230702 12 65 8.0 0.0 0.00 0.00 0.00 69 1013.4
20260503230602 12 65 8.0 0.0 0.00 0.00 0.00 69 1013.4
20260503230502 12 67 9.7 0.0 0.00 0.00 0.00 69 1013.4
20260503230402 12 67 9.7 0.0 0.00 0.00 0.00 69 1013.4
20260503230302 13 57 8.0 0.0 0.00 0.00 0.00 68 1013.4
20260503230202 13 57 8.0 0.0 0.00 0.00 0.00 68 1013.4
20260503230002 13 57 8.0 0.0 0.00 0.00 0.00 68 1013.5
20260503225901 13 57 8.0 0.0 0.00 0.00 0.00 68 1013.4
20260503225802 13 60 8.0 0.0 0.00 0.00 0.00 67 1013.4
20260503225702 13 60 8.0 0.0 0.00 0.00 0.00 67 1013.5
20260503225601 13 60 8.0 0.0 0.00 0.00 0.00 67 1013.5
20260503225502 13 55 9.7 0.0 0.00 0.00 0.00 67 1013.5
20260503225401 13 55 9.7 0.0 0.00 0.00 0.00 67 1013.5
20260503225304 13 60 9.7 0.0 0.00 0.00 0.00 67 1013.5
20260503225201 13 60 9.7 0.0 0.00 0.00 0.00 67 1013.6
20260503225102 13 60 8.0 0.0 0.00 0.00 0.00 66 1013.6
20260503225001 13 60 8.0 0.0 0.00 0.00 0.00 66 1013.6
20260503224902 13 60 8.0 0.0 0.00 0.00 0.00 66 1013.6
20260503224802 13 55 9.7 0.0 0.00 0.00 0.00 67 1013.6
20260503224701 13 55 9.7 0.0 0.00 0.00 0.00 67 1013.6
20260503224602 13 55 9.7 0.0 0.00 0.00 0.00 67 1013.6
20260503224501 13 55 8.0 0.0 0.00 0.00 0.00 66 1013.6
20260503224402 13 55 8.0 0.0 0.00 0.00 0.00 66 1013.6